User: anonymous   Login
Location: Newark
(34.6283°N, 36.0776°E)
Time: 19:20:55
(UTC+00:00)
Language:

S-56A Canister/Altair - Orbit

View from above orbital plane
View from above orbital plane
View from above satellite
View from above satellite

Ground track
Ground track

The orbit data is extracted from the following two-line orbital elements,

1    82U 61004B   20220.48527292 -.00000050 +00000-0 -34143-5 0  9993
2    82 038.8624 009.4294 1174717 329.8563 023.9272 12.26061930814070
Epoch (UTC): 07 August 2020 11:38:47
Eccentricity: 0.1174717
inclination: 38.8624°
perigee height: 633 km
apogee height: 2499 km
right ascension of ascending node: 9.4294°
argument of perigee: 329.8563°
revolutions per day: 12.26061930
mean anomaly at epoch: 23.9272°
orbit number at epoch: 81407

The dashed part of the orbit path shows where the satellite is in the earth's shadow,  

DLR